| time (UTC) | temp C | wind direction | speed KPH | gust KPH | rain 1hr cm | rain 24hr cm | rain mn cm | humidity % | barometer mb |
| 20260506150958 | 11 | 42 | 6.4 | 24.1 | 0.00 | 0.00 | 0.00 | 79 | 1017.0 |
| 20260506150458 | 11 | 41 | 12.9 | 27.4 | 0.00 | 0.00 | 0.00 | 79 | 1016.2 |
| 20260506150028 | 11 | 7 | 20.9 | 27.4 | 0.00 | 0.00 | 0.00 | 79 | 1015.2 |
| 20260506145529 | 11 | 17 | 24.1 | 27.4 | 0.00 | 0.00 | 0.00 | 79 | 1015.0 |
| 20260506144958 | 11 | 31 | 12.9 | 24.1 | 0.00 | 0.00 | 0.00 | 81 | 1015.2 |
| 20260506144458 | 11 | 24 | 12.9 | 24.1 | 0.00 | 0.00 | 0.00 | 81 | 1015.3 |
| 20260506143959 | 11 | 37 | 14.5 | 24.1 | 0.00 | 0.00 | 0.00 | 81 | 1015.1 |
| 20260506143459 | 11 | 24 | 19.3 | 24.1 | 0.00 | 0.00 | 0.00 | 81 | 1015.4 |
| 20260506142959 | 11 | 26 | 16.1 | 25.7 | 0.00 | 0.00 | 0.00 | 81 | 1015.4 |
| 20260506142459 | 11 | 30 | 19.3 | 25.7 | 0.00 | 0.00 | 0.00 | 81 | 1015.3 |
| 20260506141959 | 11 | 13 | 17.7 | 20.9 | 0.00 | 0.00 | 0.00 | 81 | 1015.3 |
| 20260506141458 | 11 | 12 | 16.1 | 22.5 | 0.00 | 0.00 | 0.00 | 82 | 1015.3 |
| 20260506140958 | 11 | 6 | 12.9 | 22.5 | 0.00 | 0.00 | 0.00 | 83 | 1015.4 |
| 20260506140458 | 11 | 13 | 17.7 | 20.9 | 0.00 | 0.00 | 0.00 | 83 | 1015.5 |
| 20260506140033 | 11 | 29 | 12.9 | 25.7 | 0.00 | 0.00 | 0.00 | 84 | 1015.4 |
| 20260506135458 | 10 | 27 | 12.9 | 25.7 | 0.00 | 0.00 | 0.00 | 85 | 1015.1 |
| 20260506135029 | 10 | 37 | 22.5 | 25.7 | 0.00 | 0.00 | 0.00 | 87 | 1014.7 |
| 20260506134458 | 10 | 6 | 22.5 | 27.4 | 0.00 | 0.00 | 0.00 | 88 | 1014.6 |
| 20260506133958 | 10 | 17 | 12.9 | 27.4 | 0.00 | 0.00 | 0.00 | 90 | 1014.5 |
| 20260506133458 | 10 | 13 | 25.7 | 27.4 | 0.00 | 0.00 | 0.00 | 89 | 1014.2 |
| 20260506133029 | 10 | 10 | 19.3 | 22.5 | 0.00 | 0.00 | 0.00 | 91 | 1014.5 |
| 20260506132458 | 10 | 0 | 14.5 | 24.1 | 0.00 | 0.00 | 0.00 | 91 | 1014.5 |
| 20260506131959 | 10 | 3 | 20.9 | 24.1 | 0.00 | 0.00 | 0.00 | 91 | 1014.6 |
| 20260506131459 | 10 | 9 | 17.7 | 24.1 | 0.00 | 0.00 | 0.00 | 92 | 1014.5 |
| 20260506130959 | 10 | 5 | 12.9 | 24.1 | 0.00 | 0.00 | 0.00 | 93 | 1014.5 |
| 20260506130459 | 10 | 8 | 17.7 | 24.1 | 0.00 | 0.00 | 0.00 | 93 | 1014.1 |
| 20260506125958 | 10 | 0 | 12.9 | 22.5 | 0.00 | 0.00 | 0.00 | 93 | 1014.4 |
| 20260506125459 | 10 | 22 | 16.1 | 22.5 | 0.00 | 0.00 | 0.00 | 93 | 1014.1 |
| 20260506124959 | 10 | 352 | 12.9 | 22.5 | 0.00 | 0.00 | 0.00 | 94 | 1014.1 |
| 20260506124458 | 10 | 3 | 16.1 | 29.0 | 0.00 | 0.00 | 0.00 | 94 | 1014.0 |
| 20260506123958 | 10 | 15 | 19.3 | 29.0 | 0.00 | 0.00 | 0.00 | 94 | 1014.0 |
| 20260506123458 | 10 | 4 | 22.5 | 22.5 | 0.00 | 0.00 | 0.00 | 93 | 1013.9 |
| 20260506122958 | 10 | 355 | 16.1 | 24.1 | 0.00 | 0.00 | 0.00 | 93 | 1014.0 |
| 20260506122500 | 10 | 0 | 20.9 | 25.7 | 0.00 | 0.00 | 0.00 | 92 | 1013.7 |
| 20260506121958 | 10 | 9 | 19.3 | 25.7 | 0.00 | 0.00 | 0.00 | 92 | 1013.9 |
| 20260506121459 | 10 | 10 | 17.7 | 25.7 | 0.00 | 0.00 | 0.00 | 91 | 1013.7 |
| 20260506120958 | 10 | 359 | 16.1 | 25.7 | 0.00 | 0.00 | 0.00 | 92 | 1013.9 |
| 20260506120459 | 10 | 6 | 16.1 | 24.1 | 0.00 | 0.00 | 0.00 | 91 | 1013.8 |
| 20260506115958 | 10 | 11 | 20.9 | 24.1 | 0.00 | 0.00 | 0.00 | 91 | 1013.9 |
| 20260506115459 | 10 | 12 | 17.7 | 25.7 | 0.00 | 0.00 | 0.00 | 92 | 1013.7 |
| 20260506114458 | 10 | 358 | 20.9 | 22.5 | 0.00 | 0.00 | 0.00 | 92 | 1013.7 |
| 20260506113958 | 10 | 21 | 17.7 | 22.5 | 0.00 | 0.00 | 0.00 | 93 | 1013.5 |
| 20260506113459 | 10 | 358 | 14.5 | 22.5 | 0.00 | 0.00 | 0.00 | 93 | 1013.4 |
| 20260506112959 | 10 | 17 | 16.1 | 22.5 | 0.00 | 0.00 | 0.00 | 93 | 1013.3 |
| 20260506112459 | 10 | 10 | 14.5 | 25.7 | 0.00 | 0.00 | 0.00 | 94 | 1013.2 |
| 20260506111958 | 10 | 8 | 22.5 | 25.7 | 0.00 | 0.00 | 0.00 | 93 | 1013.1 |
| 20260506110958 | 10 | 3 | 14.5 | 32.2 | 0.00 | 0.00 | 0.00 | 93 | 1012.8 |
| 20260506110458 | 10 | 1 | 22.5 | 32.2 | 0.00 | 0.00 | 0.00 | 92 | 1013.0 |
| 20260506105959 | 10 | 359 | 22.5 | 30.6 | 0.00 | 0.00 | 0.00 | 92 | 1013.0 |
| 20260506105458 | 10 | 0 | 22.5 | 32.2 | 0.00 | 0.00 | 0.00 | 91 | 1012.8 |
| 20260506104958 | 10 | 357 | 19.3 | 33.8 | 0.00 | 0.00 | 0.00 | 89 | 1012.7 |
| 20260506104458 | 10 | 353 | 29.0 | 33.8 | 0.00 | 0.00 | 0.00 | 87 | 1012.7 |
| 20260506104029 | 10 | 357 | 24.1 | 32.2 | 0.00 | 0.00 | 0.00 | 86 | 1012.5 |
| 20260506103458 | 11 | 346 | 17.7 | 27.4 | 0.00 | 0.00 | 0.00 | 82 | 1012.6 |
| 20260506102959 | 11 | 6 | 16.1 | 27.4 | 0.00 | 0.00 | 0.00 | 81 | 1012.7 |
| 20260506102459 | 11 | 13 | 17.7 | 27.4 | 0.00 | 0.00 | 0.00 | 80 | 1012.5 |
| 20260506101959 | 11 | 358 | 25.7 | 29.0 | 0.00 | 0.00 | 0.00 | 79 | 1012.4 |
| 20260506100958 | 11 | 5 | 20.9 | 25.7 | 0.00 | 0.00 | 0.00 | 78 | 1012.4 |
| 20260506095959 | 11 | 4 | 19.3 | 27.4 | 0.00 | 0.00 | 0.00 | 77 | 1012.2 |
| 20260506095458 | 11 | 355 | 19.3 | 27.4 | 0.00 | 0.00 | 0.00 | 77 | 1012.2 |
| 20260506094959 | 11 | 0 | 27.4 | 27.4 | 0.00 | 0.00 | 0.00 | 76 | 1011.9 |
| 20260506094459 | 11 | 356 | 22.5 | 25.7 | 0.00 | 0.00 | 0.00 | 77 | 1012.0 |
| 20260506093958 | 12 | 1 | 19.3 | 22.5 | 0.00 | 0.00 | 0.00 | 77 | 1012.0 |
| 20260506093459 | 12 | 359 | 19.3 | 22.5 | 0.00 | 0.00 | 0.00 | 78 | 1011.7 |
| 20260506092958 | 12 | 15 | 14.5 | 27.4 | 0.00 | 0.00 | 0.00 | 78 | 1011.5 |
| 20260506092459 | 12 | 10 | 20.9 | 27.4 | 0.00 | 0.00 | 0.00 | 77 | 1011.4 |
| 20260506092029 | 12 | 17 | 20.9 | 25.7 | 0.00 | 0.00 | 0.00 | 77 | 1011.3 |
| 20260506091459 | 12 | 357 | 17.7 | 25.7 | 0.00 | 0.00 | 0.00 | 77 | 1011.4 |
| 20260506090959 | 12 | 12 | 20.9 | 24.1 | 0.00 | 0.00 | 0.00 | 76 | 1011.2 |
| 20260506090529 | 12 | 20 | 14.5 | 24.1 | 0.00 | 0.00 | 0.00 | 77 | 1011.3 |
| 20260506085958 | 12 | 14 | 22.5 | 25.7 | 0.00 | 0.00 | 0.00 | 77 | 1011.1 |
| 20260506085458 | 12 | 11 | 24.1 | 27.4 | 0.00 | 0.00 | 0.00 | 76 | 1011.1 |
| 20260506084958 | 12 | 8 | 12.9 | 27.4 | 0.00 | 0.00 | 0.00 | 77 | 1011.2 |
| 20260506084459 | 12 | 2 | 17.7 | 25.7 | 0.00 | 0.00 | 0.00 | 77 | 1011.2 |
| 20260506083459 | 12 | 9 | 14.5 | 24.1 | 0.00 | 0.00 | 0.00 | 78 | 1011.0 |
| 20260506082459 | 12 | 357 | 9.7 | 20.9 | 0.00 | 0.00 | 0.00 | 79 | 1011.1 |
| 20260506081959 | 12 | 13 | 17.7 | 20.9 | 0.00 | 0.00 | 0.00 | 78 | 1011.1 |
| 20260506081459 | 12 | 1 | 11.3 | 20.9 | 0.00 | 0.00 | 0.00 | 78 | 1011.1 |
| 20260506080459 | 12 | 2 | 19.3 | 22.5 | 0.00 | 0.00 | 0.00 | 79 | 1011.1 |
| 20260506073459 | 12 | 13 | 16.1 | 22.5 | 0.00 | 0.00 | 0.00 | 79 | 1011.1 |
| 20260506072959 | 12 | 18 | 22.5 | 22.5 | 0.00 | 0.00 | 0.00 | 78 | 1011.0 |
| 20260506072459 | 12 | 20 | 16.1 | 22.5 | 0.00 | 0.00 | 0.00 | 79 | 1010.9 |
| 20260506071959 | 12 | 16 | 14.5 | 24.1 | 0.00 | 0.00 | 0.00 | 80 | 1010.8 |
| 20260506071459 | 12 | 54 | 22.5 | 25.7 | 0.00 | 0.00 | 0.00 | 78 | 1010.3 |
| 20260506071000 | 12 | 53 | 17.7 | 29.0 | 0.00 | 0.00 | 0.00 | 79 | 1010.2 |
| 20260506070459 | 12 | 61 | 22.5 | 29.0 | 0.00 | 0.00 | 0.00 | 79 | 1010.2 |
| 20260506062459 | 12 | 23 | 17.7 | 24.1 | 0.00 | 0.00 | 0.00 | 80 | 1010.7 |
| 20260506061959 | 12 | 14 | 16.1 | 25.7 | 0.00 | 0.00 | 0.00 | 79 | 1010.8 |
| 20260506061459 | 13 | 25 | 22.5 | 29.0 | 0.00 | 0.00 | 0.00 | 80 | 1010.6 |
| 20260506060959 | 12 | 8 | 25.7 | 29.0 | 0.00 | 0.00 | 0.00 | 79 | 1010.4 |
| 20260506060459 | 13 | 35 | 22.5 | 29.0 | 0.00 | 0.00 | 0.00 | 80 | 1010.5 |
| 20260506050959 | 13 | 0 | 20.9 | 27.4 | 0.00 | 0.00 | 0.00 | 80 | 1010.8 |
| 20260506050459 | 13 | 7 | 22.5 | 27.4 | 0.00 | 0.00 | 0.00 | 80 | 1010.8 |
| 20260506044959 | 13 | 14 | 19.3 | 25.7 | 0.00 | 0.00 | 0.00 | 82 | 1010.8 |
| 20260506043459 | 13 | 12 | 20.9 | 29.0 | 0.00 | 0.00 | 0.00 | 83 | 1010.8 |
| 20260506042959 | 13 | 2 | 9.7 | 27.4 | 0.00 | 0.00 | 0.00 | 84 | 1010.9 |
| 20260506042500 | 13 | 9 | 20.9 | 27.4 | 0.00 | 0.00 | 0.00 | 83 | 1010.7 |
| 20260506041959 | 13 | 7 | 19.3 | 27.4 | 0.00 | 0.00 | 0.00 | 84 | 1010.8 |
| 20260506041459 | 14 | 0 | 27.4 | 27.4 | 0.00 | 0.00 | 0.00 | 83 | 1010.7 |
| 20260506040959 | 14 | 2 | 14.5 | 27.4 | 0.00 | 0.00 | 0.00 | 84 | 1010.8 |
| 20260506040459 | 14 | 356 | 16.1 | 24.1 | 0.00 | 0.00 | 0.00 | 85 | 1010.7 |
| 20260506035459 | 14 | 3 | 16.1 | 27.4 | 0.00 | 0.00 | 0.00 | 85 | 1010.6 |
| 20260506034959 | 14 | 13 | 19.3 | 32.2 | 0.00 | 0.00 | 0.00 | 84 | 1010.4 |
| 20260506034459 | 15 | 5 | 20.9 | 32.2 | 0.00 | 0.00 | 0.00 | 84 | 1010.4 |
| 20260506033459 | 15 | 0 | 22.5 | 30.6 | 0.00 | 0.00 | 0.00 | 84 | 1010.3 |
| 20260506032959 | 15 | 6 | 24.1 | 30.6 | 0.00 | 0.00 | 0.00 | 84 | 1010.3 |
| 20260506032459 | 15 | 7 | 29.0 | 30.6 | 0.00 | 0.00 | 0.00 | 83 | 1010.1 |
| 20260506031959 | 15 | 13 | 22.5 | 32.2 | 0.00 | 0.00 | 0.00 | 84 | 1009.8 |
| 20260506031459 | 15 | 11 | 25.7 | 32.2 | 0.00 | 0.00 | 0.00 | 83 | 1009.7 |
| 20260506030959 | 15 | 7 | 17.7 | 33.8 | 0.00 | 0.00 | 0.00 | 83 | 1009.8 |
| 20260506030459 | 15 | 4 | 24.1 | 33.8 | 0.00 | 0.00 | 0.00 | 83 | 1009.8 |
| 20260506030029 | 15 | 18 | 27.4 | 33.8 | 0.00 | 0.00 | 0.00 | 82 | 1009.7 |
| 20260506025459 | 15 | 10 | 20.9 | 29.0 | 0.00 | 0.00 | 0.00 | 82 | 1009.9 |
| 20260506024459 | 15 | 0 | 22.5 | 24.1 | 0.00 | 0.00 | 0.00 | 83 | 1009.8 |
| 20260506023959 | 15 | 2 | 17.7 | 24.1 | 0.00 | 0.00 | 0.00 | 83 | 1009.7 |
| 20260506023500 | 15 | 22 | 17.7 | 29.0 | 0.00 | 0.00 | 0.00 | 83 | 1009.3 |
| 20260506022959 | 15 | 9 | 24.1 | 29.0 | 0.00 | 0.00 | 0.00 | 83 | 1009.3 |
| 20260506022459 | 15 | 2 | 25.7 | 29.0 | 0.00 | 0.00 | 0.00 | 83 | 1009.2 |
| 20260506021959 | 16 | 7 | 19.3 | 32.2 | 0.00 | 0.00 | 0.00 | 83 | 1009.1 |
| 20260506021459 | 16 | 9 | 22.5 | 32.2 | 0.00 | 0.00 | 0.00 | 82 | 1009.0 |
| 20260506020959 | 16 | 19 | 22.5 | 29.0 | 0.00 | 0.00 | 0.00 | 82 | 1008.8 |
| 20260506020500 | 16 | 34 | 19.3 | 27.4 | 0.00 | 0.00 | 0.00 | 82 | 1008.8 |
| 20260506015459 | 16 | 34 | 16.1 | 32.2 | 0.00 | 0.00 | 0.00 | 81 | 1008.2 |
| 20260506015000 | 16 | 17 | 25.7 | 32.2 | 0.00 | 0.00 | 0.00 | 80 | 1008.1 |
| 20260506014459 | 17 | 28 | 14.5 | 32.2 | 0.00 | 0.00 | 0.00 | 81 | 1008.1 |
| 20260506013529 | 17 | 29 | 24.1 | 29.0 | 0.00 | 0.00 | 0.00 | 79 | 1007.6 |
| 20260506012500 | 17 | 16 | 17.7 | 25.7 | 0.00 | 0.00 | 0.00 | 78 | 1007.3 |
| 20260506011959 | 18 | 0 | 24.1 | 25.7 | 0.00 | 0.00 | 0.00 | 77 | 1007.1 |
| 20260506011529 | 18 | 359 | 20.9 | 25.7 | 0.00 | 0.00 | 0.00 | 77 | 1006.8 |
| 20260506010959 | 18 | 3 | 24.1 | 25.7 | 0.00 | 0.00 | 0.00 | 77 | 1006.7 |
| 20260506010459 | 18 | 7 | 22.5 | 25.7 | 0.00 | 0.00 | 0.00 | 77 | 1006.7 |
| 20260506010029 | 18 | 4 | 16.1 | 25.7 | 0.00 | 0.00 | 0.00 | 76 | 1006.7 |
| 20260506004959 | 18 | 354 | 16.1 | 25.7 | 0.00 | 0.00 | 0.00 | 75 | 1006.7 |
| 20260506004459 | 18 | 343 | 11.3 | 25.7 | 0.00 | 0.00 | 0.00 | 75 | 1006.5 |
| 20260506003959 | 18 | 341 | 17.7 | 30.6 | 0.00 | 0.00 | 0.00 | 75 | 1006.6 |
| 20260506003459 | 18 | 346 | 19.3 | 30.6 | 0.00 | 0.00 | 0.00 | 74 | 1006.8 |
| 20260506002959 | 18 | 358 | 14.5 | 29.0 | 0.00 | 0.00 | 0.00 | 75 | 1006.7 |
| 20260506002459 | 18 | 0 | 14.5 | 29.0 | 0.00 | 0.00 | 0.00 | 75 | 1006.6 |
| 20260506001959 | 19 | 8 | 22.5 | 27.4 | 0.00 | 0.00 | 0.00 | 74 | 1006.3 |
| 20260506001459 | 19 | 6 | 24.1 | 27.4 | 0.00 | 0.00 | 0.00 | 73 | 1006.3 |
| 20260506000959 | 20 | 355 | 19.3 | 27.4 | 0.00 | 0.00 | 0.00 | 73 | 1006.3 |
| 20260506000459 | 20 | 353 | 22.5 | 29.0 | 0.00 | 0.00 | 0.00 | 72 | 1006.4 |
| 20260505235959 | 20 | 356 | 20.9 | 29.0 | 0.00 | 0.00 | 0.00 | 71 | 1006.6 |
| 20260505235459 | 20 | 351 | 19.3 | 30.6 | 0.00 | 0.00 | 0.00 | 72 | 1006.7 |
| 20260505234959 | 20 | 4 | 27.4 | 30.6 | 0.00 | 0.00 | 0.00 | 71 | 1006.4 |
| 20260505234000 | 21 | 348 | 22.5 | 29.0 | 0.00 | 0.00 | 0.00 | 70 | 1006.4 |
| 20260505233459 | 21 | 342 | 11.3 | 35.4 | 0.00 | 0.00 | 0.00 | 69 | 1006.3 |
| 20260505232959 | 21 | 342 | 29.0 | 35.4 | 0.00 | 0.00 | 0.00 | 68 | 1006.5 |
| 20260505232500 | 21 | 345 | 17.7 | 27.4 | 0.00 | 0.00 | 0.00 | 69 | 1006.2 |
| 20260505231959 | 21 | 335 | 19.3 | 27.4 | 0.00 | 0.00 | 0.00 | 68 | 1006.0 |
| 20260505231459 | 21 | 334 | 20.9 | 29.0 | 0.00 | 0.00 | 0.00 | 70 | 1006.4 |
| 20260505230959 | 21 | 352 | 24.1 | 29.0 | 0.00 | 0.00 | 0.00 | 69 | 1005.5 |
| 20260505230459 | 22 | 3 | 22.5 | 29.0 | 0.00 | 0.00 | 0.00 | 69 | 1006.0 |
| 20260505230029 | 22 | 333 | 22.5 | 30.6 | 0.00 | 0.00 | 0.00 | 69 | 1006.2 |
| 20260505225500 | 22 | 347 | 24.1 | 33.8 | 0.00 | 0.00 | 0.00 | 68 | 1006.0 |
| 20260505225000 | 22 | 337 | 27.4 | 33.8 | 0.00 | 0.00 | 0.00 | 67 | 1005.8 |
| 20260505224459 | 23 | 337 | 22.5 | 30.6 | 0.00 | 0.00 | 0.00 | 66 | 1005.9 |
| 20260505223959 | 23 | 342 | 27.4 | 30.6 | 0.00 | 0.00 | 0.00 | 65 | 1005.8 |
| 20260505223459 | 24 | 346 | 22.5 | 25.7 | 0.00 | 0.00 | 0.00 | 63 | 1005.8 |
| 20260505223000 | 25 | 343 | 19.3 | 25.7 | 0.00 | 0.00 | 0.00 | 62 | 1005.6 |
| 20260505222459 | 25 | 327 | 22.5 | 32.2 | 0.00 | 0.00 | 0.00 | 62 | 1005.5 |
| 20260505221000 | 25 | 333 | 20.9 | 27.4 | 0.00 | 0.00 | 0.00 | 61 | 1005.2 |
| 20260505220459 | 25 | 322 | 16.1 | 27.4 | 0.00 | 0.00 | 0.00 | 61 | 1005.1 |
| 20260505215959 | 26 | 307 | 27.4 | 29.0 | 0.00 | 0.00 | 0.00 | 60 | 1005.0 |
| 20260505215500 | 26 | 312 | 20.9 | 29.0 | 0.00 | 0.00 | 0.00 | 59 | 1005.0 |
| 20260505215000 | 26 | 331 | 24.1 | 29.0 | 0.00 | 0.00 | 0.00 | 58 | 1004.9 |
| 20260505214500 | 27 | 337 | 20.9 | 27.4 | 0.00 | 0.00 | 0.00 | 59 | 1004.7 |
| 20260505213959 | 27 | 331 | 19.3 | 29.0 | 0.00 | 0.00 | 0.00 | 59 | 1004.9 |
| 20260505213459 | 26 | 333 | 17.7 | 29.0 | 0.00 | 0.00 | 0.00 | 58 | 1004.9 |
| 20260505212459 | 27 | 330 | 24.1 | 29.0 | 0.00 | 0.00 | 0.00 | 58 | 1004.9 |
| 20260505212000 | 27 | 321 | 17.7 | 29.0 | 0.00 | 0.00 | 0.00 | 56 | 1004.8 |
| 20260505211459 | 27 | 303 | 22.5 | 29.0 | 0.00 | 0.00 | 0.00 | 54 | 1004.9 |
| 20260505210959 | 27 | 330 | 22.5 | 30.6 | 0.00 | 0.00 | 0.00 | 53 | 1005.0 |
| 20260505210459 | 28 | 303 | 22.5 | 30.6 | 0.00 | 0.00 | 0.00 | 52 | 1005.0 |
| 20260505205959 | 28 | 327 | 20.9 | 29.0 | 0.00 | 0.00 | 0.00 | 54 | 1005.1 |
| 20260505205459 | 28 | 306 | 19.3 | 25.7 | 0.00 | 0.00 | 0.00 | 54 | 1005.0 |
| 20260505204459 | 28 | 314 | 16.1 | 29.0 | 0.00 | 0.00 | 0.00 | 49 | 1005.1 |
| 20260505204000 | 28 | 322 | 14.5 | 29.0 | 0.00 | 0.00 | 0.00 | 47 | 1005.3 |
| 20260505203459 | 28 | 315 | 19.3 | 27.4 | 0.00 | 0.00 | 0.00 | 45 | 1005.2 |
| 20260505202959 | 28 | 299 | 16.1 | 29.0 | 0.00 | 0.00 | 0.00 | 44 | 1005.2 |
| 20260505202459 | 27 | 296 | 22.5 | 30.6 | 0.00 | 0.00 | 0.00 | 43 | 1005.2 |
| 20260505201959 | 27 | 296 | 20.9 | 32.2 | 0.00 | 0.00 | 0.00 | 42 | 1005.2 |
| 20260505201459 | 28 | 286 | 22.5 | 32.2 | 0.00 | 0.00 | 0.00 | 41 | 1005.0 |
| 20260505201001 | 28 | 295 | 27.4 | 32.2 | 0.00 | 0.00 | 0.00 | 41 | 1005.0 |
| 20260505200459 | 28 | 310 | 27.4 | 41.8 | 0.00 | 0.00 | 0.00 | 42 | 1005.2 |
| 20260505194959 | 30 | 252 | 22.5 | 30.6 | 0.00 | 0.00 | 0.00 | 47 | 1005.0 |
| 20260505194459 | 30 | 263 | 27.4 | 30.6 | 0.00 | 0.00 | 0.00 | 46 | 1005.0 |
| 20260505194000 | 29 | 255 | 24.1 | 29.0 | 0.00 | 0.00 | 0.00 | 46 | 1005.0 |
| 20260505193459 | 30 | 254 | 20.9 | 29.0 | 0.00 | 0.00 | 0.00 | 48 | 1005.0 |
| 20260505192959 | 29 | 247 | 22.5 | 29.0 | 0.00 | 0.00 | 0.00 | 50 | 1005.0 |
| 20260505192000 | 30 | 273 | 29.0 | 37.0 | 0.00 | 0.00 | 0.00 | 50 | 1005.1 |
| 20260505191500 | 30 | 263 | 30.6 | 33.8 | 0.00 | 0.00 | 0.00 | 51 | 1004.8 |
| 20260505190959 | 29 | 253 | 25.7 | 33.8 | 0.00 | 0.00 | 0.00 | 52 | 1004.8 |
| 20260505185959 | 29 | 233 | 24.1 | 35.4 | 0.00 | 0.00 | 0.00 | 57 | 1004.9 |
| 20260505185459 | 29 | 252 | 24.1 | 32.2 | 0.00 | 0.00 | 0.00 | 57 | 1004.8 |
| 20260505185000 | 29 | 244 | 24.1 | 30.6 | 0.00 | 0.00 | 0.00 | 57 | 1004.8 |
| 20260505183500 | 29 | 247 | 22.5 | 32.2 | 0.00 | 0.00 | 0.00 | 54 | 1004.7 |
| 20260505183000 | 29 | 236 | 19.3 | 33.8 | 0.00 | 0.00 | 0.00 | 54 | 1004.8 |
| 20260505182000 | 28 | 244 | 30.6 | 35.4 | 0.00 | 0.00 | 0.00 | 55 | 1004.9 |
| 20260505181459 | 28 | 240 | 27.4 | 30.6 | 0.00 | 0.00 | 0.00 | 54 | 1004.9 |
| 20260505181001 | 28 | 238 | 22.5 | 33.8 | 0.00 | 0.00 | 0.00 | 56 | 1004.9 |
| 20260505175959 | 28 | 251 | 27.4 | 35.4 | 0.00 | 0.00 | 0.00 | 56 | 1004.9 |
| 20260505175500 | 28 | 225 | 29.0 | 38.6 | 0.00 | 0.00 | 0.00 | 56 | 1004.9 |
| 20260505175000 | 28 | 214 | 20.9 | 38.6 | 0.00 | 0.00 | 0.00 | 60 | 1005.0 |
| 20260505174459 | 28 | 230 | 22.5 | 33.8 | 0.00 | 0.00 | 0.00 | 64 | 1005.0 |
| 20260505173459 | 28 | 218 | 22.5 | 30.6 | 0.00 | 0.00 | 0.00 | 65 | 1005.1 |
| 20260505173000 | 27 | 213 | 30.6 | 37.0 | 0.00 | 0.00 | 0.00 | 65 | 1004.9 |
| 20260505172000 | 27 | 230 | 22.5 | 37.0 | 0.00 | 0.00 | 0.00 | 66 | 1004.8 |
| 20260505170459 | 26 | 198 | 17.7 | 29.0 | 0.00 | 0.00 | 0.00 | 71 | 1004.8 |
| 20260505170030 | 26 | 192 | 11.3 | 32.2 | 0.00 | 0.00 | 0.00 | 71 | 1004.9 |
| 20260505165459 | 25 | 186 | 14.5 | 32.2 | 0.00 | 0.00 | 0.00 | 72 | 1004.9 |
| 20260505164959 | 25 | 191 | 11.3 | 29.0 | 0.00 | 0.00 | 0.00 | 74 | 1005.0 |
| 20260505164459 | 25 | 213 | 19.3 | 29.0 | 0.00 | 0.00 | 0.00 | 74 | 1004.9 |
| 20260505163959 | 25 | 205 | 17.7 | 29.0 | 0.00 | 0.00 | 0.00 | 74 | 1004.8 |
| 20260505163459 | 24 | 207 | 24.1 | 24.1 | 0.00 | 0.00 | 0.00 | 74 | 1004.7 |
| 20260505162959 | 24 | 198 | 20.9 | 24.1 | 0.00 | 0.00 | 0.00 | 75 | 1004.7 |
| 20260505162530 | 24 | 185 | 16.1 | 25.7 | 0.00 | 0.00 | 0.00 | 76 | 1004.7 |
| 20260505161529 | 24 | 210 | 14.5 | 25.7 | 0.00 | 0.00 | 0.00 | 76 | 1004.6 |
| 20260505161005 | 24 | 212 | 17.7 | 29.0 | 0.00 | 0.00 | 0.00 | 77 | 1004.8 |
| 20260505160529 | 24 | 207 | 17.7 | 29.0 | 0.00 | 0.00 | 0.00 | 76 | 1004.7 |
| 20260505152959 | 23 | 222 | 20.9 | 40.2 | 0.00 | 0.00 | 0.00 | 76 | 1004.4 |
| 20260505152501 | 23 | 213 | 20.9 | 40.2 | 0.00 | 0.00 | 0.00 | 76 | 1004.4 |
| 20260505151501 | 23 | 196 | 20.9 | 27.4 | 0.00 | 0.00 | 0.00 | 76 | 1004.2 |